When you browse on this site, cookies collect data to enhance your experience and personalize the content and advertising you see.
Visit our Privacy Policy to learn more. By continuing to use the site, you agree to this use of cookies and data.
  • In United Kingdom
  • List of Countries
  • For 7 days
  • Water Temperature
  • Weather Map
  • Weather Widgets
  • user-avatar
    Login

    Hourly Weather Ilmoviki

    Today, 26 February, Wednesday

    Time Temperature Precipitation Wind Pressure Humidity
    00:00 +1°C° 0.1 mm 3 mps 732 mmHg 96%
    01:00 +1°C° 0.1 mm 3 mps 732 mmHg 96%
    02:00 +1°C° 0 mm 3 mps 731 mmHg 95%
    03:00 +1°C° 0.3 mm 3 mps 731 mmHg 95%
    04:00 +1°C° 0.3 mm 2 mps 731 mmHg 96%
    05:00 +1°C° 0.3 mm 2 mps 730 mmHg 96%
    06:00 +1°C° 0 mm 2 mps 731 mmHg 96%
    07:00 -1°C° 0 mm 2 mps 731 mmHg 96%
    08:00 -1°C° 0 mm 2 mps 731 mmHg 93%
    09:00 +1°C° 0 mm 2 mps 731 mmHg 90%
    10:00 +1°C° 0 mm 3 mps 732 mmHg 87%
    11:00 +2°C° 0 mm 3 mps 732 mmHg 84%
    12:00 +3°C° 0 mm 3 mps 732 mmHg 81%
    13:00 +3°C° 0 mm 3 mps 732 mmHg 78%
    14:00 +4°C° 0 mm 3 mps 732 mmHg 73%
    15:00 +4°C° 0 mm 3 mps 732 mmHg 74%
    16:00 +4°C° 0 mm 2 mps 732 mmHg 75%
    17:00 +4°C° 0 mm 2 mps 732 mmHg 76%
    18:00 +4°C° 0 mm 2 mps 732 mmHg 79%
    19:00 +3°C° 0 mm 2 mps 732 mmHg 81%
    20:00 +2°C° 0 mm 2 mps 732 mmHg 83%
    21:00 +2°C° 0 mm 2 mps 732 mmHg 83%
    22:00 +2°C° 0 mm 2 mps 732 mmHg 83%
    23:00 +2°C° 0 mm 2 mps 732 mmHg 84%

    Tomorrow, 27 February, Thursday

    Time Temperature Precipitation Wind Pressure Humidity
    00:00 +2°C° 0 mm 2 mps 732 mmHg 85%
    01:00 +3°C° 0 mm 1 mps 732 mmHg 87%
    02:00 +3°C° 0 mm 1 mps 732 mmHg 88%
    03:00 +3°C° 0 mm 1 mps 732 mmHg 89%
    04:00 +3°C° 0 mm 1 mps 731 mmHg 90%
    05:00 +2°C° 0 mm 1 mps 731 mmHg 91%
    06:00 +2°C° 1.1 mm 1 mps 731 mmHg 93%
    07:00 +2°C° 1.1 mm 1 mps 731 mmHg 96%
    08:00 +2°C° 1.1 mm 1 mps 731 mmHg 98%
    09:00 +1°C° 2.3 mm 2 mps 731 mmHg 98%
    10:00 0°C° 2.3 mm 3 mps 731 mmHg 98%
    11:00 -2°C° 2.3 mm 4 mps 731 mmHg 98%
    12:00 -1°C° 0.8 mm 4 mps 731 mmHg 95%
    13:00 -1°C° 0.8 mm 4 mps 732 mmHg 91%
    14:00 0°C° 0.8 mm 5 mps 732 mmHg 88%
    15:00 -1°C° 0 mm 4 mps 732 mmHg 85%
    16:00 -1°C° 0 mm 4 mps 732 mmHg 83%
    17:00 -1°C° 0 mm 4 mps 732 mmHg 81%
    18:00 -2°C° 0 mm 4 mps 733 mmHg 83%
    19:00 -1°C° 0 mm 3 mps 733 mmHg 86%
    20:00 -2°C° 0 mm 3 mps 733 mmHg 89%
    21:00 -2°C° 0 mm 3 mps 733 mmHg 89%
    22:00 -3°C° 0 mm 4 mps 733 mmHg 89%
    23:00 -4°C° 0 mm 4 mps 733 mmHg 90%

    Day after tomorrow, 28 February, Friday

    Time Temperature Precipitation Wind Pressure Humidity
    00:00 -4°C° 0 mm 4 mps 733 mmHg 89%
    01:00 -4°C° 0 mm 3 mps 733 mmHg 88%
    02:00 -4°C° 0 mm 3 mps 733 mmHg 88%
    03:00 -4°C° 0 mm 3 mps 733 mmHg 89%
    04:00 -4°C° 0 mm 4 mps 733 mmHg 90%
    05:00 -4°C° 0 mm 4 mps 733 mmHg 91%
    06:00 -4°C° 0.1 mm 4 mps 734 mmHg 90%
    07:00 -4°C° 0.1 mm 5 mps 734 mmHg 89%
    08:00 -4°C° 0.1 mm 5 mps 734 mmHg 89%
    09:00 -2°C° 0.1 mm 5 mps 734 mmHg 87%
    10:00 -2°C° 0.1 mm 5 mps 735 mmHg 86%
    11:00 -1°C° 0.1 mm 5 mps 735 mmHg 85%
    12:00 -1°C° 0.1 mm 5 mps 735 mmHg 84%
    13:00 -1°C° 0.1 mm 5 mps 736 mmHg 82%
    14:00 -2°C° 0.1 mm 6 mps 736 mmHg 81%
    15:00 -1°C° 0 mm 5 mps 737 mmHg 82%
    16:00 -2°C° 0 mm 4 mps 737 mmHg 82%
    17:00 -2°C° 0 mm 4 mps 737 mmHg 83%
    18:00 -2°C° 0.1 mm 4 mps 738 mmHg 86%
    19:00 -3°C° 0.1 mm 4 mps 738 mmHg 89%
    20:00 -2°C° 0.1 mm 3 mps 739 mmHg 92%
    21:00 -4°C° 0 mm 3 mps 739 mmHg 92%
    22:00 -4°C° 0 mm 3 mps 739 mmHg 92%
    23:00 -4°C° 0 mm 3 mps 740 mmHg 92%

    29 February, Saturday

    Time Temperature Precipitation Wind Pressure Humidity
    00:00 -4°C° 0 mm 3 mps 740 mmHg 92%
    01:00 -5°C° 0 mm 3 mps 741 mmHg 92%
    02:00 -5°C° 0 mm 3 mps 741 mmHg 93%
    03:00 -5°C° 0 mm 3 mps 741 mmHg 92%
    04:00 -5°C° 0 mm 3 mps 742 mmHg 91%
    05:00 -5°C° 0 mm 3 mps 742 mmHg 90%
    06:00 -5°C° 0 mm 3 mps 742 mmHg 90%
    07:00 -5°C° 0 mm 3 mps 743 mmHg 91%
    08:00 -4°C° 0 mm 2 mps 743 mmHg 92%
    09:00 -4°C° 0 mm 3 mps 744 mmHg 87%
    10:00 -4°C° 0 mm 3 mps 744 mmHg 83%
    11:00 -2°C° 0 mm 3 mps 744 mmHg 78%
    12:00 -1°C° 0 mm 3 mps 745 mmHg 75%
    13:00 -1°C° 0 mm 3 mps 745 mmHg 73%
    14:00 -1°C° 0 mm 3 mps 745 mmHg 70%
    15:00 -1°C° 0 mm 3 mps 745 mmHg 73%
    16:00 -1°C° 0 mm 2 mps 746 mmHg 76%
    17:00 +1°C° 0 mm 1 mps 746 mmHg 79%
    18:00 0°C° 0 mm 1 mps 746 mmHg 81%
    19:00 0°C° 0 mm 1 mps 746 mmHg 82%
    20:00 -3°C° 0 mm 2 mps 747 mmHg 84%
    21:00 -3°C° 0 mm 2 mps 747 mmHg 84%
    22:00 -3°C° 0 mm 2 mps 747 mmHg 84%
    23:00 -3°C° 0 mm 2 mps 747 mmHg 84%

    1 March, Sunday

    Time Temperature Precipitation Wind Pressure Humidity
    00:00 -4°C° 0 mm 3 mps 747 mmHg 83%
    01:00 -4°C° 0 mm 3 mps 747 mmHg 82%
    02:00 -4°C° 0 mm 4 mps 747 mmHg 82%
    03:00 -4°C° 0 mm 4 mps 747 mmHg 82%
    04:00 -5°C° 0 mm 5 mps 746 mmHg 82%
    05:00 -5°C° 0 mm 5 mps 746 mmHg 82%
    06:00 -4°C° 0 mm 6 mps 746 mmHg 79%
    07:00 -4°C° 0 mm 6 mps 746 mmHg 76%
    08:00 -3°C° 0 mm 7 mps 745 mmHg 74%
    09:00 -3°C° 0 mm 7 mps 745 mmHg 71%
    10:00 -2°C° 0 mm 8 mps 745 mmHg 67%
    11:00 -1°C° 0 mm 8 mps 745 mmHg 64%
    12:00 0°C° 0 mm 8 mps 744 mmHg 63%
    13:00 0°C° 0 mm 8 mps 744 mmHg 61%
    14:00 +1°C° 0 mm 8 mps 744 mmHg 59%
    15:00 0°C° 0 mm 7 mps 743 mmHg 62%
    16:00 +1°C° 0 mm 6 mps 743 mmHg 66%
    17:00 +1°C° 0 mm 6 mps 742 mmHg 69%
    18:00 -1°C° 0.1 mm 6 mps 742 mmHg 76%
    19:00 -1°C° 0.1 mm 7 mps 742 mmHg 83%
    20:00 -2°C° 0.1 mm 7 mps 742 mmHg 89%
    21:00 -2°C° 0.5 mm 7 mps 742 mmHg 92%
    22:00 -2°C° 0.5 mm 7 mps 742 mmHg 94%
    23:00 -2°C° 0.5 mm 7 mps 741 mmHg 96%

    2 March, Monday

    Time Temperature Precipitation Wind Pressure Humidity
    00:00 -2°C° 0.6 mm 6 mps 741 mmHg 96%
    01:00 -2°C° 0.6 mm 6 mps 741 mmHg 97%
    02:00 0°C° 0.6 mm 5 mps 741 mmHg 97%
    03:00 0°C° 0.3 mm 5 mps 741 mmHg 97%
    04:00 0°C° 0.3 mm 4 mps 741 mmHg 97%
    05:00 0°C° 0.3 mm 4 mps 741 mmHg 96%
    06:00 0°C° 0.1 mm 4 mps 741 mmHg 96%
    07:00 0°C° 0.1 mm 4 mps 741 mmHg 96%
    08:00 0°C° 0.1 mm 4 mps 741 mmHg 96%
    09:00 +2°C° 0.5 mm 3 mps 741 mmHg 97%
    10:00 +2°C° 0.5 mm 3 mps 741 mmHg 97%
    11:00 +2°C° 0.5 mm 3 mps 741 mmHg 97%
    12:00 +2°C° 0.5 mm 3 mps 741 mmHg 97%
    13:00 +1°C° 0.5 mm 3 mps 741 mmHg 97%
    14:00 +1°C° 0.5 mm 3 mps 741 mmHg 97%
    15:00 +2°C° 0 mm 3 mps 741 mmHg 96%
    16:00 +2°C° 0 mm 3 mps 741 mmHg 94%
    17:00 +2°C° 0 mm 3 mps 740 mmHg 93%
    18:00 +1°C° 0 mm 3 mps 741 mmHg 92%
    19:00 +1°C° 0 mm 3 mps 741 mmHg 91%
    20:00 +1°C° 0 mm 3 mps 741 mmHg 90%
    21:00 +1°C° 0 mm 3 mps 742 mmHg 90%
    22:00 0°C° 0 mm 4 mps 742 mmHg 90%
    23:00 -1°C° 0 mm 4 mps 742 mmHg 91%
    Show more